This is the latest recevied weather packets stored in our database for station/object WB5LJZ-5. If no packets are shown the sender has not sent any weather packets the latest 10 day(s).
| Time | Temp. | Humidity | Pressure | Rain* | Wind** | Luminosity | Snow |
|---|---|---|---|---|---|---|---|
| 1777739746 | 19.44° C | - | - | 0 mm | 4.47 m/s, 42° | - | - |
| 1777739110 | 18.33° C | - | - | 0 mm | 4.92 m/s, 23° | - | - |
| 1777738474 | 18.33° C | - | - | 0 mm | 4.02 m/s, 51° | - | - |
| 1777737838 | 18.33° C | - | - | 0 mm | 3.58 m/s, 48° | - | - |
| 1777737202 | 17.78° C | - | - | 0 mm | 4.02 m/s, 42° | - | - |
| 1777736567 | 17.22° C | - | - | 0 mm | 4.47 m/s, 37° | - | - |
| 1777735930 | 17.22° C | - | - | 0 mm | 4.47 m/s, 17° | - | - |
| 1777735294 | 17.22° C | - | - | 0 mm | 4.47 m/s, 86° | - | - |
| 1777734659 | 16.67° C | - | - | 0 mm | 4.92 m/s, 52° | - | - |
| 1777734023 | 16.11° C | - | - | 0 mm | 4.47 m/s, 31° | - | - |
| 1777733387 | 16.67° C | - | - | 0 mm | 4.92 m/s, 48° | - | - |
| 1777732748 | 16.11° C | - | - | 0 mm | 3.58 m/s, 20° | - | - |
| 1777732112 | 16.67° C | - | - | 0 mm | 4.02 m/s, 24° | - | - |
| 1777731476 | 16.11° C | - | - | 0 mm | 3.58 m/s, 48° | - | - |
| 1777730840 | 14.44° C | - | - | 0 mm | 4.02 m/s, 53° | - | - |
| 1777730204 | 13.89° C | - | - | 0 mm | 3.58 m/s, 3° | - | - |
| 1777729568 | 13.33° C | - | - | 0 mm | 3.58 m/s, 13° | - | - |
| 1777728933 | 13.33° C | - | - | 0 mm | 3.58 m/s, 42° | - | - |
| 1777728297 | 12.78° C | - | - | 0 mm | 3.13 m/s, 17° | - | - |
| 1777727661 | 12.78° C | - | - | 0 mm | 2.68 m/s, 28° | - | - |
| 1777727025 | 12.22° C | - | - | 0 mm | 3.58 m/s, 3° | - | - |
| 1777726389 | 11.67° C | - | - | 0 mm | 3.58 m/s, 359° | - | - |
| 1777725753 | 11.67° C | - | - | 0 mm | 3.58 m/s, 359° | - | - |
| 1777725117 | 12.22° C | - | - | 0 mm | 2.68 m/s, 330° | - | - |
| 1777724481 | 11.67° C | - | - | 0 mm | 1.34 m/s, 346° | - | - |
* Rain latest hour (hover to see other rain measurements)
** Current wind speed in m/s (hover to see current wind gust speed)